Regional Weather Roundup
Issued by NWS

Home | Current Version | Previous Version | Text Only | Print | Product List | Glossary On
Versions: 1 2 3 4 5 6 7 8 9 10 11 12 13 14 15 16 17 18 19 20 21 22 23 24 25 26 27 28 29 30 31 32 33 34 35 36 37 38 39 40 41 42 43 44 45 46 47 48 49 50
000
ASUS43 KLSX 190659
RWRMO

WEATHER SUMMARY FOR MISSOURI
NATIONAL WEATHER SERVICE SPRINGFIELD MO
200 AM CDT SUN APR 19 2015

NOTE: "FAIR" INDICATES FEW OR NO CLOUDS BELOW 12,000 FEET WITH NO
       SIGNIFICANT WEATHER AND/OR OBSTRUCTIONS TO VISIBILITY.
       CURRENT SKY AND/OR WEATHER CONDITIONS ARE NOT AVAILABLE FOR
       CHILLICOTHE AND FARMINGTON.

MOZ001>031-035>038-043-044-053-054-190800-
...NORTHERN AND WESTERN MISSOURI...

CITY           SKY/WX    TMP DP  RH WIND       PRES   REMARKS
KANSAS CTY INT RAIN      58  58 100 SW6       29.80S VSB 1
KANSAS C DTWN  HVY RAIN  61  59  93 W6        29.79F FOG
LEE`S SUMMIT   CLOUDY    58  58 100 CALM      29.79F FOG
ST JOSEPH      LGT RAIN  54  54 100 NE3       29.78F FOG
CHILLICOTHE      N/A     59  58  96 CALM      29.81F
KIRKSVILLE     CLOUDY    60  57  89 E6        29.81F

$$
MOZ066>068-077>081-088>096-101>105-190800-
...SOUTHWEST MISSOURI...

CITY           SKY/WX    TMP DP  RH WIND       PRES   REMARKS
SPRINGFIELD    FOG       52  52 100 CALM      29.77F VSB 3/4
JOPLIN         MOCLDY    58  56  93 S6        29.79S

$$
MOZ032>034-039>042-045>050-055>058-069>072-190800-
...CENTRAL MISSOURI...

CITY           SKY/WX    TMP DP  RH WIND       PRES   REMARKS
COLUMBIA       CLEAR     59  54  83 SE3       29.78F
JEFFERSON CITY CLEAR     56  55  97 CALM      29.78F
ROLLA          CLOUDY    59  56  89 E6        29.77F
SEDALIA        FOG       56  54  93 CALM      29.78F VSB 1/4
WHITEMAN AFB   FOG       59  59 100 E2        29.77F VSB 3/4
OSAGE BEACH    CLEAR     55  52  88 CALM      29.78F

$$
MOZ051-052-059>065-190800-
...EAST CENTRAL MISSOURI...

CITY           SKY/WX    TMP DP  RH WIND       PRES   REMARKS
ST LOUIS INTL  MOCLDY    64  56  75 SE6       29.79F
SPIRIT OF STL  MOCLDY    60  56  86 CALM      29.77F
ST CHARLES     MOCLDY    64  54  69 CALM      29.78F

$$
MOZ072>076-082>087-097>100-106>115-190800-
...SOUTH CENTRAL AND SOUTHEAST MISSOURI...

CITY           SKY/WX    TMP DP  RH WIND       PRES   REMARKS
CAPE GIRARDEAU CLOUDY    64  61  90 E3        29.75F
FARMINGTON     CLOUDY    63  57  82 E6        29.80F
POPLAR BLUFF   LGT RAIN  65  62  90 VRB5      29.75S
WEST PLAINS    CLOUDY    59  56  89 CALM      29.77F

$$



USA.gov is the U.S. government's official web portal to all federal, state and local government web resources and services.